TimeCDT,TemperatureF,Dew PointF,Humidity,Sea Level PressureIn,VisibilityMPH,Wind Direction,Wind SpeedMPH,Gust SpeedMPH,PrecipitationIn,Events,Conditions,WindDirDegrees,DateUTC
12:53 AM,63.0,57.9,84,29.95,10.0,Calm,Calm,-,N/A,,Clear,0,2013-09-12 05:53:00
1:53 AM,61.0,57.0,87,29.94,10.0,Calm,Calm,-,N/A,,Clear,0,2013-09-12 06:53:00
2:53 AM,61.0,55.9,83,29.94,10.0,Calm,Calm,-,N/A,,Clear,0,2013-09-12 07:53:00
3:53 AM,57.9,55.0,90,29.95,10.0,WSW,3.5,-,N/A,,Partly Cloudy,250,2013-09-12 08:53:00
4:53 AM,61.0,55.9,83,29.94,10.0,Calm,Calm,-,N/A,,Clear,0,2013-09-12 09:53:00
5:53 AM,60.1,55.0,83,29.95,10.0,Calm,Calm,-,N/A,,Mostly Cloudy,0,2013-09-12 10:53:00
6:53 AM,60.1,55.9,86,29.96,10.0,Calm,Calm,-,N/A,,Mostly Cloudy,0,2013-09-12 11:53:00
7:53 AM,64.0,53.1,67,29.97,10.0,North,9.2,-,N/A,,Mostly Cloudy,10,2013-09-12 12:53:00
8:53 AM,64.0,55.0,73,29.98,10.0,North,9.2,-,N/A,,Overcast,360,2013-09-12 13:53:00
9:53 AM,66.9,55.9,68,29.99,10.0,North,9.2,-,N/A,,Mostly Cloudy,350,2013-09-12 14:53:00
10:53 AM,66.0,55.0,68,30.01,10.0,North,10.4,-,N/A,,Overcast,350,2013-09-12 15:53:00
11:53 AM,70.0,55.0,59,30.02,10.0,North,13.8,-,N/A,,Partly Cloudy,350,2013-09-12 16:53:00
12:53 PM,69.1,54.0,58,30.02,10.0,NNW,12.7,21.9,N/A,,Scattered Clouds,330,2013-09-12 17:53:00
1:53 PM,72.0,54.0,53,30.01,10.0,NNW,11.5,-,N/A,,Partly Cloudy,340,2013-09-12 18:53:00
2:53 PM,70.0,51.1,51,30.01,10.0,NW,17.3,20.7,N/A,,Partly Cloudy,310,2013-09-12 19:53:00
3:53 PM,71.1,52.0,51,30.00,10.0,NW,10.4,19.6,N/A,,Partly Cloudy,320,2013-09-12 20:53:00
4:53 PM,72.0,50.0,46,30.00,10.0,North,12.7,-,N/A,,Mostly Cloudy,350,2013-09-12 21:53:00
5:53 PM,69.1,48.0,47,30.03,10.0,North,17.3,-,N/A,,Partly Cloudy,10,2013-09-12 22:53:00
6:53 PM,66.0,46.0,48,30.05,10.0,North,15.0,23.0,N/A,,Mostly Cloudy,10,2013-09-12 23:53:00
7:53 PM,63.0,45.0,52,30.08,10.0,North,13.8,-,N/A,,Partly Cloudy,10,2013-09-13 00:53:00
8:53 PM,62.1,45.0,53,30.11,10.0,North,13.8,19.6,N/A,,Overcast,360,2013-09-13 01:53:00
9:53 PM,59.0,43.0,55,30.13,10.0,North,16.1,23.0,N/A,,Overcast,10,2013-09-13 02:53:00
10:53 PM,55.0,43.0,64,30.14,10.0,North,10.4,-,N/A,,Clear,350,2013-09-13 03:53:00
11:53 PM,53.1,43.0,69,30.15,10.0,North,12.7,-,N/A,,Clear,360,2013-09-13 04:53:00